Total_Precipitation_Accumulation
0.31 0.48 1.13 1.41 1.57 1.50 1.32 1.19 1.13 1.11 1.11 1.15 1.17 1.15 1.09 1.08 1.11 1.06 1.08 1.31 1.47 1.55 1.70 1.66 1.54 1.43 1.24 1.16 1.06 0.95 0.88 0.83 0.79 0.73 0.67 0.80 0.93 0.95 0.81 0.80 0.91 0.95 1.31
0.30 0.48 1.05 1.36 1.51 1.38 1.26 1.18 1.10 1.05 1.08 1.17 1.29 1.29 1.20 1.17 1.15 1.15 1.14 1.34 1.52 1.65 1.82 1.75 1.59 1.38 1.07 0.87 0.77 0.72 0.67 0.57 0.48 0.34 0.28 0.38 0.63 0.85 0.84 0.75 0.84 1.04 1.23
0.29 0.43 0.90 1.37 1.48 1.43 1.35 1.25 1.15 1.06 1.12 1.24 1.37 1.36 1.27 1.16 1.16 1.22 1.20 1.31 1.46 1.59 1.63 1.58 1.50 1.27 0.95 0.75 0.63 0.60 0.55 0.46 0.33 0.20 0.22 0.34 0.54 0.86 0.90 0.89 1.00 1.09 1.17
0.32 0.43 0.78 1.37 1.49 1.45 1.37 1.31 1.26 1.18 1.16 1.25 1.38 1.33 1.29 1.27 1.27 1.21 1.25 1.32 1.38 1.39 1.28 1.26 1.24 1.10 0.84 0.66 0.60 0.58 0.54 0.45 0.29 0.21 0.34 0.46 0.57 1.04 1.10 1.10 1.17 1.12 1.12
0.41 0.52 0.88 1.41 1.56 1.50 1.43 1.37 1.36 1.36 1.30 1.28 1.28 1.31 1.30 1.28 1.30 1.28 1.24 1.26 1.24 1.24 1.15 1.07 1.02 0.90 0.75 0.65 0.59 0.59 0.53 0.40 0.26 0.24 0.37 0.54 0.82 1.39 1.30 1.17 1.22 1.12 1.04
0.53 0.75 1.10 1.52 1.66 1.64 1.52 1.43 1.44 1.50 1.52 1.44 1.38 1.36 1.39 1.38 1.40 1.33 1.18 1.08 1.11 1.13 1.13 1.03 0.91 0.84 0.71 0.64 0.63 0.61 0.51 0.37 0.26 0.31 0.40 0.52 0.82 1.42 1.35 1.21 1.19 1.24 1.22
0.65 0.94 1.32 1.71 1.80 1.74 1.63 1.53 1.58 1.64 1.65 1.61 1.56 1.55 1.49 1.52 1.48 1.32 1.14 1.03 1.09 1.10 1.11 1.06 0.93 0.85 0.78 0.70 0.72 0.65 0.47 0.35 0.29 0.35 0.47 0.59 0.95 1.41 1.35 1.28 1.32 1.34 1.36
0.96 1.27 1.65 1.98 1.95 1.79 1.65 1.54 1.51 1.64 1.66 1.60 1.57 1.64 1.61 1.53 1.46 1.32 1.15 1.08 1.15 1.23 1.25 1.13 1.01 0.89 0.80 0.75 0.71 0.61 0.43 0.34 0.32 0.32 0.42 0.59 1.03 1.43 1.46 1.33 1.34 1.38 1.39
1.56 1.77 1.91 2.04 1.99 2.02 1.82 1.59 1.52 1.54 1.60 1.62 1.61 1.61 1.59 1.55 1.53 1.40 1.28 1.24 1.24 1.30 1.28 1.19 1.07 0.98 0.87 0.76 0.64 0.50 0.38 0.34 0.33 0.33 0.32 0.52 0.96 1.39 1.56 1.49 1.48 1.53 1.48
2.11 2.27 2.32 2.30 2.19 2.09 1.98 1.73 1.56 1.56 1.54 1.59 1.61 1.53 1.43 1.46 1.47 1.35 1.20 1.22 1.24 1.24 1.18 1.11 1.07 1.06 0.95 0.82 0.61 0.43 0.38 0.38 0.30 0.32 0.38 0.55 1.02 1.47 1.62 1.57 1.59 1.55 1.53
2.57 2.67 2.78 2.75 2.57 2.37 2.11 1.80 1.71 1.69 1.64 1.57 1.56 1.43 1.45 1.46 1.39 1.24 1.14 1.05 1.05 1.10 1.08 1.07 1.06 0.99 0.90 0.80 0.61 0.45 0.41 0.40 0.37 0.36 0.41 0.69 1.19 1.52 1.62 1.56 1.59 1.48 1.39
2.73 2.87 2.91 2.98 2.97 2.82 2.49 2.16 2.03 1.84 1.76 1.58 1.45 1.46 1.41 1.39 1.40 1.22 1.21 1.07 0.96 0.95 0.98 1.05 1.06 1.00 0.85 0.75 0.65 0.52 0.45 0.44 0.47 0.43 0.48 0.78 1.23 1.59 1.67 1.60 1.56 1.46 1.34
2.86 3.05 3.12 3.20 3.15 3.02 2.71 2.37 2.16 2.04 1.95 1.81 1.65 1.58 1.47 1.47 1.45 1.42 1.40 1.32 1.14 0.97 0.97 0.95 0.94 0.83 0.77 0.71 0.68 0.54 0.45 0.45 0.51 0.48 0.53 0.78 1.19 1.65 1.82 1.72 1.61 1.51 1.38
2.98 3.07 3.23 3.38 3.29 3.10 2.87 2.64 2.34 2.21 2.13 2.02 1.88 1.81 1.72 1.60 1.53 1.42 1.32 1.29 1.28 1.08 1.06 1.00 0.85 0.75 0.74 0.69 0.66 0.61 0.53 0.52 0.53 0.56 0.59 0.75 1.10 1.56 1.74 1.69 1.64 1.59 1.53
2.91 3.15 3.37 3.49 3.42 3.33 3.19 2.87 2.55 2.39 2.27 2.16 2.17 2.02 1.87 1.74 1.65 1.61 1.46 1.37 1.28 1.22 1.20 1.16 1.03 0.93 0.86 0.82 0.75 0.68 0.63 0.58 0.55 0.57 0.60 0.64 0.84 1.24 1.57 1.72 1.80 1.76 1.72
2.59 3.00 3.37 3.51 3.44 3.35 3.34 3.19 2.83 2.49 2.46 2.38 2.27 2.22 2.13 1.98 1.84 1.76 1.67 1.59 1.46 1.37 1.34 1.30 1.16 1.17 1.15 1.08 0.95 0.82 0.72 0.66 0.60 0.56 0.57 0.61 0.72 0.94 1.30 1.66 1.83 1.90 2.00
2.30 2.68 3.12 3.48 3.59 3.40 3.37 3.43 3.32 2.96 2.67 2.44 2.30 2.27 2.26 2.15 2.00 1.90 1.88 1.75 1.56 1.50 1.53 1.53 1.44 1.39 1.32 1.23 1.11 1.03 0.93 0.83 0.74 0.68 0.64 0.62 0.68 0.82 1.08 1.39 1.64 1.83 2.10
2.14 2.44 2.82 3.08 3.45 3.47 3.37 3.38 3.43 3.30 3.06 2.78 2.50 2.35 2.26 2.19 2.11 2.04 1.98 1.96 1.79 1.74 1.78 1.72 1.63 1.56 1.43 1.32 1.20 1.15 1.08 1.01 0.94 0.91 0.87 0.78 0.75 0.72 0.89 1.20 1.42 1.68 2.01
2.03 2.33 2.78 2.82 3.06 3.43 3.66 3.53 3.35 3.32 3.17 3.02 2.77 2.47 2.28 2.30 2.32 2.21 2.01 1.96 1.98 1.89 1.85 1.88 1.81 1.68 1.58 1.49 1.42 1.31 1.22 1.16 1.08 1.05 1.06 1.00 0.94 0.87 0.84 1.00 1.20 1.36 1.67
2.10 2.31 2.71 2.82 2.97 3.31 3.69 3.75 3.60 3.46 3.26 3.13 2.89 2.58 2.39 2.29 2.35 2.29 2.13 2.10 2.13 2.05 1.88 1.82 1.77 1.74 1.65 1.65 1.63 1.52 1.41 1.32 1.26 1.19 1.13 1.12 1.10 1.04 0.96 0.92 0.96 1.08 1.31
2.27 2.33 2.53 2.77 2.92 3.12 3.35 3.40 3.29 3.27 3.28 3.23 3.05 2.88 2.72 2.57 2.48 2.45 2.32 2.30 2.29 2.18 2.05 2.00 2.02 1.93 1.80 1.78 1.77 1.62 1.51 1.44 1.32 1.24 1.19 1.09 1.05 1.06 1.06 1.03 0.95 0.92 1.02
2.20 2.28 2.47 2.69 2.80 2.84 3.04 3.30 3.27 3.30 3.38 3.46 3.40 3.22 3.01 2.88 2.79 2.68 2.62 2.61 2.55 2.41 2.29 2.20 2.18 2.14 1.98 1.93 1.95 1.91 1.74 1.68 1.47 1.21 1.15 1.08 1.04 1.04 1.04 1.09 1.08 0.98 0.91
2.07 2.29 2.40 2.57 2.73 2.78 3.06 3.57 3.62 3.60 3.55 3.56 3.54 3.47 3.28 3.08 2.98 2.87 2.81 2.83 2.81 2.68 2.54 2.39 2.28 2.21 2.21 2.13 2.03 2.15 1.91 1.60 1.45 1.32 1.18 1.09 1.07 1.08 1.07 1.09 1.11 1.08 0.99
1.81 2.11 2.38 2.54 2.76 2.98 3.24 3.53 3.63 3.46 3.38 3.31 3.27 3.36 3.42 3.21 3.08 3.00 2.97 2.95 2.97 2.95 2.78 2.65 2.52 2.41 2.39 2.32 2.19 1.98 1.84 1.58 1.49 1.39 1.26 1.20 1.15 1.10 1.08 1.09 1.11 1.13 1.14
1.63 1.85 2.10 2.39 2.58 2.90 3.18 3.37 3.60 3.42 3.16 3.23 3.27 3.22 3.30 3.29 3.13 3.06 2.98 2.90 2.87 2.90 2.95 2.91 2.71 2.60 2.45 2.26 2.13 1.96 1.85 1.62 1.42 1.40 1.26 1.16 1.19 1.12 1.06 1.05 1.11 1.15 1.18
1.47 1.63 1.79 2.03 2.19 2.37 2.66 3.00 3.29 3.35 3.23 3.17 3.14 3.17 3.14 3.13 3.08 3.04 2.99 2.88 2.73 2.67 2.70 2.83 2.85 2.71 2.57 2.37 2.17 2.02 1.90 1.79 1.58 1.51 1.44 1.21 1.18 1.15 1.12 1.10 1.06 1.09 1.13